Location: Hamburg
(53.5554°N, 9.9941°E)
Time: 18:24:31
(UTC+02:00)

ISS - Pass Details

Date: 08 January 2018
Orbit: 401 x 409 km, 51.6° (Epoch: 22 August)

Event Time Altitude Azimuth Distance (km) Brightness Sun altitude
Exits shadow 06:39:48 31° 249° (WSW) 763 -2.9 -15.8°
Maximum altitude 06:40:59 47° 196° (SSW) 570 -3.1 -15.7°
Drops below altitude 10° 06:44:16 10° 121° (ESE) 1,515 0.3 -15.2°
Sets 06:46:25 0° 115° (ESE) 2,382 1.9 -14.9°
